PROFILE

 METAR AND TAF INFORMATION
ADDS - METARS form results

(0625 UTC 22 September 2019)
http://aviationweather.gov/metar/data/
 
KSAN 220551Z 01003KT 10SM SCT250 21/19 A2987 RMK AO2 SLP116 T02060189 10244 20206 50008
KSAN 220520Z 2206/2312 VRB04KT P6SM BKN250 FM221200 VRB04KT P6SM FEW005 SCT250 FM221600 VRB04KT P6SM SCT012 FM221900 27008KT P6SM SKC FM230200 VRB04KT P6SM FEW005 

 AIRPORT MAP

 RUNWAY INFORMATION
Runway 09 Runway length 9401 ft Runway width 200 ft
Runway elevation 14 ft Runway displaced threshold 700 ft Runway heading 106
Runway 27 Runway length 9401 ft Runway width 200 ft
Runway elevation 13 ft Runway displaced threshold 1810 ft Runway heading 286

 AIRPORT FREQUENCIES
Type A/D Name SOCAL APP/ Frequency 119.6 MHZ
Type ATIS Name ATIS Frequency 134.8 MHZ
Type CLD Name CLNC DEL Frequency 125.9 MHZ
Type GND Name GND Frequency 123.9 MHZ
Type MISC Name CG Frequency 157.15 MHZ
Type MISC Name CG Frequency 898.4 MHZ
Type TWR Name LINDBERGH Frequency 118.3 MHZ
Type UNIC Name UNICOM Frequency 122.95 MHZ

 AIRPORT NEAR NAVIGATION AIDS
Type NDB Name Boing Frequency 245 KHZ